When you browse on this site, cookies collect data to enhance your experience and personalize the content and advertising you see.
Visit our Privacy Policy to learn more. By continuing to use the site, you agree to this use of cookies and data.
  • en Suisse
  • Liste des pays
  • À 7 jours
  • Température de l'eau
  • Carte météo
  • Widgets météo
  • user-avatar
    Se connecter

    Météo par heure à Vljora

    Ce jour, 25 Février, Mardi

    Heure Température Précipitation Vent Pression Humidité
    00:00 +12°C° 0 mm 4 m/s 763 mmHg 63%
    01:00 +12°C° 0 mm 3 m/s 763 mmHg 61%
    02:00 +12°C° 0 mm 3 m/s 763 mmHg 60%
    03:00 +12°C° 0 mm 3 m/s 762 mmHg 59%
    04:00 +12°C° 0 mm 3 m/s 762 mmHg 58%
    05:00 +12°C° 0 mm 4 m/s 762 mmHg 60%
    06:00 +12°C° 0 mm 5 m/s 762 mmHg 62%
    07:00 +11°C° 0 mm 6 m/s 762 mmHg 64%
    08:00 +14°C° 0 mm 7 m/s 762 mmHg 61%
    09:00 +16°C° 0 mm 8 m/s 762 mmHg 58%
    10:00 +18°C° 0 mm 9 m/s 762 mmHg 55%
    11:00 +18°C° 0 mm 9 m/s 762 mmHg 55%
    12:00 +18°C° 0 mm 10 m/s 761 mmHg 55%
    13:00 +19°C° 0 mm 10 m/s 761 mmHg 56%
    14:00 +18°C° 0 mm 11 m/s 761 mmHg 59%
    15:00 +17°C° 0 mm 11 m/s 760 mmHg 63%
    16:00 +17°C° 0 mm 12 m/s 760 mmHg 66%
    17:00 +15°C° 0 mm 12 m/s 760 mmHg 69%
    18:00 +14°C° 0 mm 12 m/s 760 mmHg 72%
    19:00 +13°C° 0 mm 12 m/s 760 mmHg 76%
    20:00 +12°C° 0 mm 12 m/s 760 mmHg 77%
    21:00 +12°C° 0 mm 12 m/s 759 mmHg 79%
    22:00 +12°C° 0 mm 11 m/s 759 mmHg 81%
    23:00 +12°C° 0 mm 12 m/s 759 mmHg 82%

    Demain, 26 Février, Mercredi

    Heure Température Précipitation Vent Pression Humidité
    00:00 +12°C° 0 mm 12 m/s 759 mmHg 83%
    01:00 +12°C° 0 mm 12 m/s 758 mmHg 85%
    02:00 +12°C° 0 mm 12 m/s 758 mmHg 84%
    03:00 +12°C° 0 mm 12 m/s 757 mmHg 84%
    04:00 +12°C° 0 mm 12 m/s 756 mmHg 84%
    05:00 +12°C° 0 mm 12 m/s 756 mmHg 84%
    06:00 +12°C° 0 mm 12 m/s 756 mmHg 83%
    07:00 +12°C° 0 mm 13 m/s 755 mmHg 83%
    08:00 +13°C° 0 mm 13 m/s 755 mmHg 79%
    09:00 +14°C° 0 mm 13 m/s 755 mmHg 75%
    10:00 +15°C° 0 mm 13 m/s 755 mmHg 70%
    11:00 +15°C° 0.1 mm 12 m/s 755 mmHg 71%
    12:00 +16°C° 0.1 mm 11 m/s 755 mmHg 72%
    13:00 +16°C° 0.1 mm 10 m/s 754 mmHg 73%
    14:00 +16°C° 0 mm 10 m/s 754 mmHg 73%
    15:00 +16°C° 0 mm 10 m/s 753 mmHg 73%
    16:00 +14°C° 0 mm 10 m/s 753 mmHg 73%
    17:00 +15°C° 0.1 mm 9 m/s 753 mmHg 76%
    18:00 +13°C° 0.1 mm 8 m/s 753 mmHg 79%
    19:00 +12°C° 0.1 mm 8 m/s 754 mmHg 83%
    20:00 +12°C° 0.1 mm 7 m/s 754 mmHg 82%
    21:00 +12°C° 0.1 mm 7 m/s 754 mmHg 80%
    22:00 +13°C° 0.1 mm 6 m/s 754 mmHg 79%
    23:00 +12°C° 0.3 mm 7 m/s 754 mmHg 78%

    Après-demain, 27 Février, Jeudi

    Heure Température Précipitation Vent Pression Humidité
    00:00 +11°C° 0.3 mm 8 m/s 754 mmHg 77%
    01:00 +11°C° 0.3 mm 9 m/s 754 mmHg 76%
    02:00 +9°C° 0.6 mm 10 m/s 754 mmHg 77%
    03:00 +9°C° 0.6 mm 11 m/s 753 mmHg 77%
    04:00 +8°C° 0.6 mm 13 m/s 753 mmHg 77%
    05:00 +8°C° 0.1 mm 12 m/s 753 mmHg 72%
    06:00 +7°C° 0.1 mm 12 m/s 754 mmHg 66%
    07:00 +7°C° 0.1 mm 11 m/s 754 mmHg 60%
    08:00 +7°C° 0.1 mm 12 m/s 755 mmHg 65%
    09:00 +7°C° 0.1 mm 12 m/s 755 mmHg 70%
    10:00 +7°C° 0.1 mm 13 m/s 756 mmHg 75%
    11:00 +7°C° 0.7 mm 13 m/s 756 mmHg 75%
    12:00 +8°C° 0.7 mm 14 m/s 757 mmHg 76%
    13:00 +8°C° 0.7 mm 15 m/s 757 mmHg 77%
    14:00 +8°C° 0.2 mm 13 m/s 758 mmHg 73%
    15:00 +8°C° 0.2 mm 12 m/s 759 mmHg 70%
    16:00 +8°C° 0.2 mm 11 m/s 759 mmHg 67%
    17:00 +7°C° 0 mm 10 m/s 760 mmHg 68%
    18:00 +6°C° 0 mm 8 m/s 760 mmHg 70%
    19:00 +6°C° 0 mm 7 m/s 761 mmHg 72%
    20:00 +6°C° 0 mm 5 m/s 761 mmHg 70%
    21:00 +6°C° 0 mm 4 m/s 762 mmHg 68%
    22:00 +7°C° 0 mm 2 m/s 762 mmHg 66%
    23:00 +7°C° 0 mm 3 m/s 762 mmHg 65%

    28 Février, Vendredi

    Heure Température Précipitation Vent Pression Humidité
    00:00 +7°C° 0 mm 3 m/s 762 mmHg 63%
    01:00 +7°C° 0 mm 3 m/s 762 mmHg 62%
    02:00 +6°C° 0 mm 4 m/s 762 mmHg 64%
    03:00 +7°C° 0 mm 5 m/s 762 mmHg 65%
    04:00 +6°C° 0 mm 7 m/s 761 mmHg 66%
    05:00 +6°C° 0 mm 7 m/s 761 mmHg 70%
    06:00 +6°C° 0 mm 8 m/s 761 mmHg 73%
    07:00 +6°C° 0 mm 8 m/s 761 mmHg 77%
    08:00 +7°C° 0.7 mm 9 m/s 760 mmHg 80%
    09:00 +7°C° 0.7 mm 9 m/s 760 mmHg 84%
    10:00 +7°C° 0.7 mm 10 m/s 760 mmHg 87%
    11:00 +7°C° 2.3 mm 10 m/s 759 mmHg 87%
    12:00 +8°C° 2.3 mm 9 m/s 759 mmHg 87%
    13:00 +8°C° 2.3 mm 9 m/s 759 mmHg 87%
    14:00 +10°C° 1.4 mm 7 m/s 759 mmHg 86%
    15:00 +10°C° 1.4 mm 6 m/s 759 mmHg 84%
    16:00 +12°C° 1.4 mm 5 m/s 759 mmHg 83%
    17:00 +10°C° 0.1 mm 6 m/s 760 mmHg 82%
    18:00 +10°C° 0.1 mm 7 m/s 760 mmHg 81%
    19:00 +9°C° 0.1 mm 8 m/s 761 mmHg 80%
    20:00 +9°C° 0 mm 8 m/s 762 mmHg 76%
    21:00 +7°C° 0 mm 8 m/s 762 mmHg 73%
    22:00 +7°C° 0 mm 8 m/s 763 mmHg 69%
    23:00 +6°C° 0 mm 7 m/s 763 mmHg 71%

    29 Février, Samedi

    Heure Température Précipitation Vent Pression Humidité
    00:00 +7°C° 0 mm 6 m/s 763 mmHg 74%
    01:00 +7°C° 0 mm 5 m/s 763 mmHg 76%
    02:00 +6°C° 0 mm 5 m/s 763 mmHg 78%
    03:00 +6°C° 0 mm 4 m/s 763 mmHg 81%
    04:00 +6°C° 0 mm 4 m/s 763 mmHg 83%
    05:00 +7°C° 0 mm 3 m/s 763 mmHg 79%
    06:00 +7°C° 0 mm 2 m/s 763 mmHg 74%
    07:00 +8°C° 0 mm 2 m/s 763 mmHg 69%
    08:00 +9°C° 0 mm 2 m/s 764 mmHg 63%
    09:00 +11°C° 0 mm 3 m/s 764 mmHg 56%
    10:00 +13°C° 0 mm 4 m/s 764 mmHg 50%
    11:00 +14°C° 0 mm 4 m/s 764 mmHg 51%
    12:00 +14°C° 0 mm 5 m/s 763 mmHg 51%
    13:00 +14°C° 0 mm 6 m/s 763 mmHg 52%
    14:00 +14°C° 0 mm 6 m/s 763 mmHg 55%
    15:00 +14°C° 0 mm 7 m/s 763 mmHg 57%
    16:00 +14°C° 0 mm 7 m/s 762 mmHg 60%
    17:00 +12°C° 0 mm 8 m/s 763 mmHg 66%
    18:00 +11°C° 0 mm 8 m/s 763 mmHg 72%
    19:00 +10°C° 0 mm 9 m/s 763 mmHg 78%
    20:00 +10°C° 0 mm 9 m/s 763 mmHg 78%
    21:00 +10°C° 0 mm 9 m/s 762 mmHg 78%
    22:00 +11°C° 0 mm 9 m/s 762 mmHg 78%
    23:00 +10°C° 0 mm 9 m/s 762 mmHg 80%

    1 Mars, Dimanche

    Heure Température Précipitation Vent Pression Humidité
    00:00 +9°C° 0 mm 10 m/s 762 mmHg 81%
    01:00 +9°C° 0 mm 10 m/s 761 mmHg 82%
    02:00 +9°C° 0 mm 10 m/s 761 mmHg 82%
    03:00 +9°C° 0 mm 10 m/s 761 mmHg 83%
    04:00 +8°C° 0 mm 10 m/s 761 mmHg 84%
    05:00 +9°C° 0 mm 11 m/s 761 mmHg 84%
    06:00 +9°C° 0 mm 11 m/s 760 mmHg 84%
    07:00 +9°C° 0 mm 12 m/s 760 mmHg 84%
    08:00 +12°C° 0 mm 12 m/s 760 mmHg 80%
    09:00 +13°C° 0 mm 12 m/s 760 mmHg 76%
    10:00 +15°C° 0 mm 12 m/s 761 mmHg 72%
    11:00 +15°C° 0 mm 12 m/s 760 mmHg 71%
    12:00 +17°C° 0 mm 12 m/s 760 mmHg 71%
    13:00 +17°C° 0 mm 12 m/s 759 mmHg 70%
    14:00 +15°C° 0 mm 12 m/s 759 mmHg 72%
    15:00 +15°C° 0 mm 12 m/s 758 mmHg 73%
    16:00 +15°C° 0 mm 12 m/s 758 mmHg 75%
    17:00 +14°C° 0 mm 11 m/s 758 mmHg 78%
    18:00 +13°C° 0 mm 11 m/s 758 mmHg 81%
    19:00 +13°C° 0 mm 10 m/s 758 mmHg 84%
    20:00 +13°C° 0.2 mm 10 m/s 758 mmHg 85%
    21:00 +13°C° 0.2 mm 9 m/s 759 mmHg 86%
    22:00 +12°C° 0.2 mm 9 m/s 759 mmHg 87%
    23:00 +13°C° 0.2 mm 8 m/s 758 mmHg 86%
    Voir plus